Regional Weather Roundup
Issued by NWS Upton, NY

Current Version | Previous Version | Text Only | Print | Product List | Glossary On
Versions: 1 2 3 4 5 6 7 8 9 10 11 12 13 14 15 16 17 18 19 20 21 22 23 24 25 26 27
000 ASUS41 KOKX 260405 RWROKX Regional Weather Roundup National Weather Service New York NY 1200 AM EDT SAT MAY 26 2018 Note: "FAIR" indicates few or no clouds below 12,000 feet with no significant weather and/or obstructions to visibility. NYZ071-072-176-178-NJZ106-104-260500- New York City Metro Area CITY SKY/WX TMP DP RH WIND PRES REMARKS Central Park FAIR 78 61 55 MISG 29.87S Bronx Bot Gard N/A 77 59 53 SW3 29.84F Bronx Lehman C N/A 79 61 53 SW12 N/A LaGuardia Arpt FAIR 79 60 52 SW13 29.83F Queens College N/A N/A N/A N/A SW12 N/A Kennedy Intl FAIR 68 63 84 SW9 29.86S Breezy Point N/A 68 N/A N/A SW6 N/A Brooklyn Coll N/A 75 61 60 SW9 N/A Staten Island N/A 75 63 64 SW8 N/A Newark/Liberty FAIR 77 61 57 SW10 29.84F Teterboro FAIR 77 62 59 S8 29.83S $$ NYZ177-179-078>081-260500- Long Island New York CITY SKY/WX TMP DP RH WIND PRES REMARKS Jones Beach N/A 64 N/A N/A SW7G13 N/A Wantagh N/A 68 61 77 SW7 N/A Hempstead N/A 70 63 78 S5 29.88F Matinecock Pt N/A 77 N/A N/A SW13 N/A Farmingdale FAIR 69 61 75 SW10 29.85F MacArthur/ISP FAIR 69 61 75 SW13 29.85S Stony Brook N/A N/A N/A N/A S3 N/A Shirley FAIR 68 62 81 SW9G18 29.85S Mt Sinai Harb N/A 72 N/A N/A SW8 N/A Westhampton FAIR 66 57 72 SW10 29.87S East Hampton FAIR 67 58 72 SW15G21 29.84S Southold N/A 70 59 68 SW8 N/A Montauk N/A 69 58 67 SW12G21 29.84S $$ NYZ052-065-067-260500- Hudson Valley CITY SKY/WX TMP DP RH WIND PRES REMARKS White Plains FAIR 76 59 55 SW8 29.84S Larchmont Harb N/A 72 N/A N/A S14 N/A Croton On Huds N/A 75 N/A N/A S1 N/A Somers N/A N/A N/A N/A SW7 N/A Brewster N/A 68 57 68 S2 N/A Newburgh NOT AVBL Montgomery FAIR 68 59 73 SW6 29.82S Otisville N/A 70 59 68 SW2 N/A Warwick N/A 75 63 64 W12G23 N/A Suffern N/A N/A N/A N/A SW3 N/A Poughkeepsie FAIR 71 59 65 SW6 29.80S Albany MOCLDY 67 53 61 S5 29.78R $$ NJZ001-105-106-008-010-013-015-019>022-104-260500- New Jersey CITY SKY/WX TMP DP RH WIND PRES REMARKS Newark/Liberty FAIR 77 61 57 SW10 29.84F Teterboro FAIR 77 62 59 S8 29.83S Caldwell FAIR 75 61 61 VRB5 29.84F Somerville FAIR 67 63 87 CALM 29.84F Linden FAIR 77 59 53 W5 29.85F Perth Amboy N/A 75 N/A N/A SW12 N/A Sussex FAIR 70 62 76 SW3 29.85R Andover N/A 70 63 78 S3 29.87S Trenton FAIR 74 64 71 SW6 29.87S Millville FAIR N/A N/A N/A VRB5 29.91S Atlantic City FAIR 72 64 76 SW9 29.90F Wrightstown FAIR 72 62 71 SW9 29.86S Toms River FAIR 70 61 73 SW10 29.89F Belmar FAIR 72 62 71 SW9 29.89S $$ PAZ047>061-062-071-260500- Eastern Pennsylvania CITY SKY/WX TMP DP RH WIND PRES REMARKS Philadelphia FAIR 74 63 68 SW10 29.89S Allentown FAIR 73 62 68 W3 29.87S Scranton FAIR 73 61 65 SW5 29.87S $$ CTZ002-004>006-009-010-012-RIZ004-006-007-MAZ004-011-015-260500- Southern New England In CT CITY SKY/WX TMP DP RH WIND PRES REMARKS Bradley Intl FAIR 68 59 73 S7 29.79S Hartford FAIR 68 60 75 S9 29.79S Danbury FAIR 73 60 63 SW9 29.84S Wtrbury/Oxford FAIR 71 59 65 W6 29.85S Norwalk Harbor N/A 66 N/A N/A SW9 N/A Bridgeport FAIR 65 59 81 SW5 29.82F Meriden FAIR 63 59 87 CALM 29.81F New Haven FAIR 69 59 70 SW8 29.82S Chester FAIR 66 61 82 SW7 29.83F Groton FAIR 68 59 73 W8G17 29.81F Willimantic FAIR 70 59 68 SW7 29.80F In RI CITY SKY/WX TMP DP RH WIND PRES REMARKS Providence FAIR 69 58 67 SW7 29.79F Block Island FAIR 60 53 77 SW23G29 29.83S Westerly FAIR 66 59 78 SW7 29.82F In MA CITY SKY/WX TMP DP RH WIND PRES REMARKS Boston MOCLDY 73 57 57 SW16 29.74S Worcester FAIR 68 55 63 W14 29.80S Westfield FAIR 67 57 70 S3 29.78S Provincetown FAIR 59 56 89 SW14 29.77S Nantucket FAIR 57 52 83 SW14 29.83F $$ ANZ330-335-338-340-345-350-353-355-260500- Coastal Marine Observations STATION/POSITION TIME SKY/WX TEMP WIND PRES VSBY WAVE AIR SEA DIR/SP/G HT/PER (UTC) (F) (DEG/KT/KT) (MB) (MI) (FT/S) NY Harb Entrance 0350 63 60 200/ 14/ 16 1011.2 3/ 6 20 S Fire Island 0250 60 54 230/ 17/ 19 1011.6 5/ 6 23 SSW Montauk P 0350 59 54 230/ 17/ 19 1010.9 5/ 6 15 E Barnegat Li 0330 59 N/A 4/ 5 Hudson Canyon 0350 59 54 220/ 14/ 17 1012.7 4/ 5 Kings Point 0330 75 59 260/ 12/ 17 1011.5 Execution Rocks NOT AVBL Western LI Sound 0320 69 230/ 14/ 16 N/A 0 Central LI Sound 0330 63 210/ 10/ 12 N/A 2 Robbins Reef 0336 78 230/ 13/ 19 1011.2 $$ >>>>>>>>>>>>>>>>>>>>>>>>>>>> KEY <<<<<<<<<<<<<<<<<<<<<<<<<<< > < > SKY/WX - Sky Condition/Present Weather < > TMP - Temperature in Fahrenheit < > DP - Dew Point in Fahrenheit < > RH - Relative Humidity in Percent < > WIND - Direction (from) and Speed in MPH < > PRES - Mean Sea Level Pressure (inches of Hg) < > WCI - Wind Chill Index < > VSB - Visibility in Miles < > HX - Heat Index < > TC - Temperature in Celsius < > VRB - Varibale Wind Direction < > < >>>>>>>>>>>>>>>>>>>>>>>>>>>> KEY <<<<<<<<<<<<<<<<<<<<<<<<<<<

USA.gov is the U.S. government's official web portal to all federal, state and local government web resources and services.